STARLINK-32577, 62044

Orbit data source: Space-Track

STARLINK-32577, 62044 is a payload satellite owned by SpaceX/Seattle (US) in LEO that was launched on Thu, 21 Nov 2024 UTC via an FALCON 9 launch vehicle from the Air Force Eastern Test Range (AFETR). Payload-class satellites include a variety of spacecraft equipped with specific instruments for various scientific and technological missions. These include communications satellites like Starlink; space stations such as the ISS; scientific satellites like the Hubble; Earth observation satellites from companies like Planet Labs, Umbra, and HawkEye 360; GPS; miniature CubeSats for education and research; and military/defense satellites.

Loading next visibility...
Identifier
62044, 2024-216N
Orbit
LEO
Country
Flag of USUS
Related business
Manufacturer
SpaceX/Seattle
Mission
Operational Commercial Communications
Bus & Motor
STARLINK V2M, Unknown motor
Mass
730 kg wet, ~700 kg dry
Launch date (UTC)
2024-11-21 (10 months ago)
Launch vehicle
FALCON 9
Launch site
Air Force Eastern Test Range (AFETR)
Object type
Payload
Rocket body
Debris
Shape & HBR
Box + 2 Pan, 14.5 m
Radar Cross Section
36.964 m², Large (>1 m²)

Expand to show TLE details & history
Last TLE update: 16 hours ago

TLE from 16 hours ago
0 STARLINK-32577
1 62044U 24216N   25259.17314199  .00026684  00000-0  97423-3 0  9993
2 62044  42.9980 168.9868 0001195 280.6894  79.3823 15.27630007 47115
Epoch: 2025-09-16T04:09Z
TLE epoch observation values (Epoch: 2025-09-16T04:09:19.467Z)
Latitude
-0.00004°
Longitude
111.2884°
Altitude
482.524 km
Speed
7.626 km/s
True Right ascension
11h 15m 56s
True Declination
0° 00' 00"
Sunlit
Object was in daylight at epoch
Visualization orbit readout
Latitude
Unknown
Longitude
Unknown
Altitude
Unknown
Speed
Unknown
Apparent Right ascension
Unknown
Apparent Declination
Unknown
Sunlit
N/A
Visualization observer readout
Local Sidereal Time
12:40:36
Azimuth
Unknown
Elevation
Unknown
Doppler factor
Unknown
Orbital elements
Apogee altitude
485.665 km
Perigee altitude
484.025 km
Semi-major axis
6,862.982 km
Eccentricity
0.00012
Inclination
42.998°
RAAN
168.9868°
Arg. of periapsis
280.6894°
True anomaly
79.39576°
Mean anomaly
79.3823°
Eccentric anomaly
79.38903°
Mean motion
3.81745 °/min
Orbital period
94.3 mins
BSTAR
0.00097423
Loading maneuver chart data...
Computing Atmospheric mass density...
Loading historical data...
Loading historical data...
Loading historical data...
Loading historical data...
Loading historical data...
Loading historical data...
Loading historical data...

Documentation

Showing up to 5 results
|